weather.gov     
National Weather Service

Regional Weather Roundup
NWS Homepage
This page is being discontinued on March 12, 2014.
The same data is available at this site. Please update your bookmarks.
Thank you, and we apologize for the inconvenience.
Please send an email to SR-SRH.Webmaster@noaa.gov with any concerns.


Current Version
Previous Version:    01  02  03  04  05  06  07  08  09  10  11  12  13  14  15  16  17  18  19  20  21  22  23  24  25  26  27  28  29  30  
   31  32  33  34  35  36  37  38  39  40  41  42  43  44  45  46  47  48  49  50  51  52  53  54  55  56  57  58  59  60  
[Printable]
914
ASUS41 KCLE 260810
RWRCLE
OHIO REGIONAL WEATHER ROUNDUP
NATIONAL WEATHER SERVICE WILMINGTON, OH
400 AM EDT SUN OCT 26 2014

NOTE: "FAIR" INDICATES FEW OR NO CLOUDS BELOW 12,000 FEET WITH NO
SIGNIFICANT WEATHER AND/OR OBSTRUCTIONS TO VISIBILITY.

OHZ001>008-015>018-024>027-034-035-043-044-260900-
   NORTHWEST OHIO

CITY           SKY/WX    TMP DP  RH WIND       PRES   REMARKS
DEFIANCE       CLEAR     44  33  65 CALM      29.92R
FINDLAY        CLEAR     42  33  70 W7        29.90R
TOLEDO EXPRESS CLEAR     43  32  65 W6        29.89S
TOLEDO METCALF CLEAR     42  32  67 W8        29.90R
LIMA           CLEAR     49  34  56 W7        29.92R
$$

OHZ009>014-019>023-028>033-038-089-260900-
   NORTHEAST OHIO

CITY           SKY/WX    TMP DP  RH WIND       PRES   REMARKS
CLE-HOPKINS    CLEAR     53  36  52 NW13G21   29.85R
CLE-LAKEFRONT  CLEAR     55  38  52 NW23G31   29.82R
CUY CO. ARPT   NOT AVBL
LORAIN-ELYRIA  CLEAR     52  38  58 NW12      29.86R
ASHTABULA      CLEAR     51  36  56 NW6       29.79R
AKRON-CANTON   CLEAR     47  32  56 NW9       29.83R
WOOSTER        CLEAR     51  32  48 NW10      29.85R
MANSFIELD      CLEAR     48  32  53 W7        29.87R
YOUNGSTOWN     CLEAR     47  36  65 W7        29.79R
$$

OHZ042-051>053-060>062-070>072-077>081-260900-
  SOUTHWEST OHIO

CITY           SKY/WX    TMP DP  RH WIND       PRES   REMARKS
CINC-COVINGTON CLEAR     54  34  46 W6        29.96S
CINC-LUNKEN    CLEAR     57  36  45 NW6       29.97R
HAMILTON       CLEAR     42  40  92 NW3       29.97R
DAYTON         CLEAR     50  36  58 NW8       29.95S
WRIGHT-PAT AFB CLEAR     52  36  55 NW6       29.94R
DAYTON GENERAL CLEAR     52  36  54 NW5       29.95R
WILMINGTON     CLEAR     52  38  58 NW8       29.94R
$$

OHZ036-037-039>041-045>050-054>059-063>069-073>076-082>088-260900-
  CENTRAL AND SOUTHEAST OHIO

CITY           SKY/WX    TMP DP  RH WIND       PRES   REMARKS
COLUMBUS       CLEAR     45  36  70 W8        29.90R
OSU AIRPORT    CLEAR     45  35  68 W7        29.90R
BOLTON FIELD   CLEAR     50  38  62 W6        29.92R
RICKENBACK AFB CLEAR     49  38  66 W6        29.91R
NEWARK         CLEAR     49  34  56 NW8       29.89R
MARION         CLEAR     47  33  58 W7        29.90R
LANCASTER      CLEAR     53  36  52 NW7       29.91R
ZANESVILLE     CLEAR     51  32  48 W7        29.87R
NEW PHILLY     CLEAR     49  33  54 NW5       29.85R
$$




U.S. Dept. of Commerce
NOAA National Weather Service
1325 East West Highway
Silver Spring, MD 20910
E-mail: w-nws.webmaster@noaa.gov
Page last modified: May 16, 2007
NATIONAL WEATHER SERVICE: for Safety, for Work, for Fun - FOR LIFE